Estación Meteorológica de la Universidad de Murcia
Estación Meteorológica de la Universidad de Murcia
Universidad de Murcia
 

Temperatura ambienteTemperatura ambiente

 

Máxima: 27,9 ºC a las 16:29:00 del día 03/10/2022
Mínima: 17,3 ºC a las 08:41:00 del día 03/10/2022

||Temperatura máxima últimos meses|| ---- ||Temperatura mínima últimos meses||


Temperatura máxima

  • 1 - 27,9 ºC del día 03/10/2022
  • 2 - 27,1 ºC del día 02/10/2022
  • 3 - 27 ºC del día 01/10/2022
  • 4 - 24,5 ºC del día 30/09/2022
  • 5 - 26,8 ºC del día 29/09/2022
  • 6 - 30,4 ºC del día 28/09/2022
  • 7 - 28,8 ºC del día 27/09/2022
  • 8 - 27,6 ºC del día 26/09/2022
  • 9 - 27,4 ºC del día 25/09/2022
  • 10 - 32,3 ºC del día 24/09/2022
  • 11 - 30,3 ºC del día 23/09/2022
  • 12 - 30,9 ºC del día 22/09/2022
  • 13 - 28,6 ºC del día 21/09/2022
  • 14 - 30,2 ºC del día 20/09/2022
  • 15 - 29,5 ºC del día 19/09/2022
  • 16 - 28,4 ºC del día 18/09/2022
  • 17 - 31 ºC del día 17/09/2022
  • 18 - 33,1 ºC del día 16/09/2022
  • 19 - 32,7 ºC del día 15/09/2022
  • 20 - 30,3 ºC del día 14/09/2022
  • 21 - 27,9 ºC del día 13/09/2022
  • 22 - 33,9 ºC del día 12/09/2022
  • 23 - 34,1 ºC del día 11/09/2022
  • 24 - 32,7 ºC del día 10/09/2022
  • 25 - 36,4 ºC del día 09/09/2022
  • 26 - 35,6 ºC del día 08/09/2022
  • 27 - 35,9 ºC del día 07/09/2022
  • 28 - 35,5 ºC del día 06/09/2022
  • 29 - 35,5 ºC del día 05/09/2022
  • 30 - 33,4 ºC del día 04/09/2022
  • 31 - 33,9 ºC del día 03/09/2022
  • 32 - 35,4 ºC del día 02/09/2022
  • 33 - 34,5 ºC del día 01/09/2022
  • 34 - 34,7 ºC del día 31/08/2022
  • 35 - 34,6 ºC del día 30/08/2022
  • 36 - 31,2 ºC del día 29/08/2022
  • 37 - 32,1 ºC del día 28/08/2022
  • 38 - 33,2 ºC del día 27/08/2022
  • 39 - 33,1 ºC del día 26/08/2022
  • 40 - 34,1 ºC del día 25/08/2022
  • 41 - 34,6 ºC del día 24/08/2022
  • 42 - 33,3 ºC del día 23/08/2022
  • 43 - 32,7 ºC del día 22/08/2022
  • 44 - 39,4 ºC del día 21/08/2022
  • 45 - 33,7 ºC del día 20/08/2022
  • 46 - 33 ºC del día 19/08/2022
  • 47 - 34,5 ºC del día 18/08/2022
  • 48 - 35,1 ºC del día 17/08/2022
  • 49 - 36,4 ºC del día 16/08/2022
  • 50 - 37,3 ºC del día 15/08/2022
  • 51 - 38,2 ºC del día 14/08/2022
  • 52 - 38,8 ºC del día 13/08/2022
  • 53 - 37,5 ºC del día 12/08/2022
  • 54 - 34,1 ºC del día 11/08/2022
  • 55 - 34,2 ºC del día 10/08/2022
  • 56 - 34,6 ºC del día 09/08/2022
  • 57 - 35,3 ºC del día 08/08/2022
  • 58 - 35,6 ºC del día 07/08/2022
  • 59 - 34,9 ºC del día 06/08/2022

||Volver al inicio de la página||


Temperatura mínima

  • 1 - 17,3 ºC del día 03/10/2022
  • 2 - 12,8 ºC del día 02/10/2022
  • 3 - 12,5 ºC del día 01/10/2022
  • 4 - 15 ºC del día 30/09/2022
  • 5 - 16,9 ºC del día 29/09/2022
  • 6 - 17 ºC del día 28/09/2022
  • 7 - 15,4 ºC del día 27/09/2022
  • 8 - 17,3 ºC del día 26/09/2022
  • 9 - 19,7 ºC del día 25/09/2022
  • 10 - 18,4 ºC del día 24/09/2022
  • 11 - 18 ºC del día 23/09/2022
  • 12 - 19 ºC del día 22/09/2022
  • 13 - 20,1 ºC del día 21/09/2022
  • 14 - 17,8 ºC del día 20/09/2022
  • 15 - 21,2 ºC del día 19/09/2022
  • 16 - 21,8 ºC del día 18/09/2022
  • 17 - 19,9 ºC del día 17/09/2022
  • 18 - 19,5 ºC del día 16/09/2022
  • 19 - 18,9 ºC del día 15/09/2022
  • 20 - 23,2 ºC del día 14/09/2022
  • 21 - 24,7 ºC del día 13/09/2022
  • 22 - 21,2 ºC del día 12/09/2022
  • 23 - 20,6 ºC del día 11/09/2022
  • 24 - 20,4 ºC del día 10/09/2022
  • 25 - 20,2 ºC del día 09/09/2022
  • 26 - 20,9 ºC del día 08/09/2022
  • 27 - 19,7 ºC del día 07/09/2022
  • 28 - 20,6 ºC del día 06/09/2022
  • 29 - 20,6 ºC del día 05/09/2022
  • 30 - 19,7 ºC del día 04/09/2022
  • 31 - 22 ºC del día 03/09/2022
  • 32 - 23,2 ºC del día 02/09/2022
  • 33 - 21,9 ºC del día 01/09/2022
  • 34 - 21,5 ºC del día 31/08/2022
  • 35 - 22,7 ºC del día 30/08/2022
  • 36 - 23,1 ºC del día 29/08/2022
  • 37 - 22,6 ºC del día 28/08/2022
  • 38 - 21 ºC del día 27/08/2022
  • 39 - 22,2 ºC del día 26/08/2022
  • 40 - 22,2 ºC del día 25/08/2022
  • 41 - 21,5 ºC del día 24/08/2022
  • 42 - 22,1 ºC del día 23/08/2022
  • 43 - 22,2 ºC del día 22/08/2022
  • 44 - 20,6 ºC del día 21/08/2022
  • 45 - 19,9 ºC del día 20/08/2022
  • 46 - 22 ºC del día 19/08/2022
  • 47 - 20,8 ºC del día 18/08/2022
  • 48 - 22,9 ºC del día 17/08/2022
  • 49 - 21,7 ºC del día 16/08/2022
  • 50 - 23,4 ºC del día 15/08/2022
  • 51 - 23,4 ºC del día 14/08/2022
  • 52 - 25,9 ºC del día 13/08/2022
  • 53 - 21,7 ºC del día 12/08/2022
  • 54 - 22,2 ºC del día 11/08/2022
  • 55 - 23,7 ºC del día 10/08/2022
  • 56 - 22,3 ºC del día 09/08/2022
  • 57 - 21,5 ºC del día 08/08/2022
  • 58 - 21,3 ºC del día 07/08/2022
  • 59 - 21,8 ºC del día 06/08/2022

 

|| Humedad relativa|| Velocidad y dirección del viento|| Precipitación|| Radiación Solar Global y PAR|| Temperatura y humedad del suelo|| Presión atmosférica|| Más información|| Volver a la página principal|| Volver al inicio de la página||


Estación Meteorológica de la Universidad de Murcia
http://estacion.um.es/
Informacion actualizada a: 05/10/2022 a las 13:40:00